Regional Weather Roundup
Issued by NWS Newport/Morehead, NC

Home | Current Version | Previous Version | Text Only | Print | Product List | Glossary On
Versions: 1 2 3 4 5 6 7 8 9 10 11 12 13 14 15 16 17 18 19 20 21 22 23 24 25 26 27 28 29 30 31 32 33 34 35 36 37 38 39 40 41 42 43 44 45 46 47 48 49 50
000
ASUS42 KMHX 232325
RWRMHX
WEATHER ROUNDUP FOR EASTERN NORTH CAROLINA
NATIONAL WEATHER SERVICE NEWPORT/MOREHEAD CITY NC
700 PM EDT THU MAR 23 2017

NOTE: "FAIR" INDICATES FEW OR NO CLOUDS BELOW 12,000 FEET
WITH NO SIGNIFICANT WEATHER AND/OR OBSTRUCTIONS TO VISIBILITY

NCZ015>017-031-032-045>047-102-103-240000-
NORTH COAST

CITY           SKY/WX    TMP DP  RH WIND       PRES   REMARKS
EDENTON        CLEAR     42  29  60 SE7       30.58F
ELIZABETH CITY CLEAR     40  24  53 E8        30.59R
KITTY HAWK     NOT AVBL
MANTEO         CLEAR     37  26  63 E7        30.60R

$$

NCZ045>047-081-094-103-104-240000-
CENTRAL COAST

CITY           SKY/WX    TMP DP  RH WIND       PRES   REMARKS
FRISCO         CLEAR     42  28  57 NE8       30.58S

$$

NCZ095-097-098-100-101-240000-
SOUTHERN COAST

CITY           SKY/WX    TMP DP  RH WIND       PRES   REMARKS
BEAUFORT       CLEAR     45  30  55 NE6       30.57R
CEDAR ISLAND   NOT AVBL
JACKSONVILLE   CLEAR     52  30  43 E12       30.54R
PINEY ISLAND   CLEAR    N/A N/A N/A NE12      30.57R
WILMINGTON     CLEAR     49  33  54 E10       30.55S


$$

NCZ011>013-027>030-043-044-078>080-089-090>093-098-240000-
COASTAL PLAIN

CITY           SKY/WX    TMP DP  RH WIND       PRES   REMARKS
AHOSKIE          N/A     46  16  29 SE3       30.55S
CLINTON        CLEAR     53  28  37 CALM      30.53S
ELIZABETHTOWN  CLEAR     55  26  32 CALM      30.51S
GOLDSBORO      CLEAR     52  21  29 E5        30.51F
GREENVILLE     CLEAR     50  27  40 SE7       30.55R
HAVELOCK       CLEAR     46  29  51 E10       30.58R
KENANSVILLE    CLEAR     52  25  35 CALM      30.53S
KINSTON        CLEAR     52  21  30 E5        30.54F
NEW BERN       CLEAR     47  33  58 SE9       30.57R
RICHLANDS      CLEAR     52  24  33 E5        30.54S
ROCKY MOUNT    CLEAR     51  18  27 CALM      30.54S
WASHINGTON     CLEAR     45  24  42 E6        30.56S
WHITEVILLE     CLEAR     55  32  41 SE8       30.51R

$$

AMZ130-135-150-152-154-156-158-170-250-252-270-ANZ085-086-088-633-658-670-240000-
MARINE OBSERVATIONS

STATION/POSITION TIME  TEMP    WIND        PRES    WAVE   SWELL
                       AIR SEA DIR/SP/G            HT/PER HT/PER
                 (UTC) (F)     (DEG/KT/KT) (MB)    (FT/S) (FT/S)
CHESAPEAKE LIGHT NOT AVBL
64 E VA BEACH    2250   39 50   20/ 10/ 14 1035.4    5/ 7   5/ 7
DUCK             2300   38 48   40/ 10/ 12 1035.3
2 E DUCK         2300      47                N/A     4/ 6   2/11
OREGON INLET     2300      50   30/  8/ 11 1036.0
13E OREGON INLT  NOT AVBL
HATTERAS CG      2300   41 52   40/  8/ 14 1034.9
DIAMOND BUOY     2250   47 73   20/ 14/ 17 1035.0    9/11   8/11
CAPE LOOKOUT     2300   45      20/ 11/ 13 1034.8
BEAUFORT LAB     2300   45 52   20/  8/ 11 1034.2
30 SE NEW RVR IN 2308   50      60/ 14/ 19 1034.6
30 SE NEW RVR IN 2313      68                N/A     5/ 6   2/11
27 SE WRIGHTSVLE 2308   50 62   70/ 14/ 21 1034.1
5 SE WRIGHTSVLE  2308   51 56  100/ 14/ 21 1034.3
225 S CAPE HAT   2250   61 72   40/ 17/ 25 1030.4    7/11   5/11
41 SE CHARLESTON 2250   61 71   40/ 23/ 29 1030.6    7/ 7   2/ 9

$$



USA.gov is the U.S. government's official web portal to all federal, state and local government web resources and services.